User: anonymous   Login
Location: Unspecified
(0.0000°N, 0.0000°E)
Time: 05:48:46
(UTC+02:00)
Language:

Cosmos 1898 Rocket - Orbit

View from above orbital plane
View from above orbital plane
View from above satellite
View from above satellite

Ground track
Ground track

The orbit data is extracted from the following two-line orbital elements,

1 18586U 87098B   15245.97363581 +.00000128 +00000-0 +52300-4 0  9994
2 18586 074.0058 058.0517 0022007 269.0778 205.2987 14.36649432453243
Epoch (UTC): 02 September 2015 23:22:02
Eccentricity: 0.0022007
inclination: 74.0058°
perigee height: 754 km
apogee height: 785 km
right ascension of ascending node: 58.0517°
argument of perigee: 269.0778°
revolutions per day: 14.36649432
mean anomaly at epoch: 205.2987°
orbit number at epoch: 45324

The dashed part of the orbit path shows where the satellite is in the earth's shadow,  

DLR